Regional Weather Roundup
Issued by NWS Sterling, VA

Home | Current Version | Previous Version | Graphics & Text | Print | Product List | Glossary On
Versions: 1 2 3 4 5 6 7 8 9 10 11 12 13 14 15 16 17 18 19 20 21 22 23 24 25 26 27 28 29 30 31 32 33 34 35 36 37 38 39 40 41 42 43 44 45 46 47 48 49 50
000
ASUS41 KLWX 021310
RWRLWX

REGIONAL WEATHER ROUNDUP
NATIONAL WEATHER SERVICE BALTIMORE MD/WASHINGTON DC
900 AM EDT TUE SEP 02 2014

Note: "FAIR" indicates few or no clouds below 12,000 feet
with no significant weather and/or obstructions to visibility.
 TC=TEMPERATURE CELSIUS

 * =Non NWS site. Station does not report precipitation (e.g. rain,
    snow, etc.), thunder, or fog.

DCZ001-MDZ009-015-VAZ040>042-051-053>054-021400-
WASHINGTON METRO

CITY           SKY/WX    TMP DP  RH WIND       PRES   REMARKS
WASHINGTON NAT MOSUNNY   82  72  71 S6        29.98S
DULLES         PTSUNNY   78  71  79 S6        29.99R
ANDREWS AFB    MOSUNNY   82  71  69 SW6       29.99S
QUANTICO       MOSUNNY   79  71  76 S6        29.99S
COLLEGE PARK*  MOSUNNY   81  72  74 CALM      29.97S
LEESBURG*      SUNNY     79  75  89 SW3       29.99S
MANASSAS*      SUNNY     77  73  88 CALM      29.99
GAITHERSBURG*  SUNNY     77  73  88 CALM      30.02F

$$

MDZ006>007-011-014-021400-
BALTIMORE METRO

CITY           SKY/WX    TMP DP  RH WIND       PRES   REMARKS
BWI AIRPORT    MOSUNNY   80  72  76 SW3       29.97S
MD SCIENCE CTR   N/A     83  68  60 MISG      29.96F
MARTIN STATE   SUNNY     82  73  74 SW5       29.98R
ANNAPOLIS      MOSUNNY   82  69  64 SW5       29.97S
FORT MEADE*    SUNNY     73  72  94 CALM      30.00S

$$

MDZ012-015-019>023-021400-
MARYLAND EASTERN SHORE

CITY           SKY/WX    TMP DP  RH WIND       PRES   REMARKS
OCEAN CITY     SUNNY     84  74  71 W6        29.99S HX  91
SALISBURY      SUNNY     83  73  72 SW7       29.98F
BAY BRIDGE AP*   N/A     81  70  69 SW5       29.97S
CAMBRIDGE*     SUNNY     81  72  74 SW3       29.97F
EASTON*        SUNNY     84  77  79 CALM      30.01S HX  94

$$

MDZ017>025-021400-
SOUTHERN MARYLAND

CITY           SKY/WX    TMP DP  RH WIND       PRES   REMARKS
PATUXENT RIVER MOSUNNY   81  71  71 SW9       29.98S
ST INIGOES     SUNNY     80  70  71 SW5       29.99S
LEONARDTOWN*   SUNNY     81  68  65 SW8       30.01S

$$

MDZ003>005-021400-
NORTH CENTRAL MARYLAND

CITY           SKY/WX    TMP DP  RH WIND       PRES   REMARKS
FREDERICK*     SUNNY     81  73  78 S3        30.00F
HAGERSTOWN APT SUNNY     79  67  66 SW5       29.98S
WESTMINSTER*   SUNNY     77  72  83 SW6       29.99S

$$

MDZ501>502-021400-
WESTERN MARYLAND

CITY           SKY/WX    TMP DP  RH WIND       PRES   REMARKS
OAKLAND*       CLOUDY    68 N/A N/A W7G16     30.11R HAZE
CUMBERLAND*    PTSUNNY   79  70  73 CALM      30.03S

$$

VAZ025>031-021400-
SHENANDOAH VALLEY

CITY           SKY/WX    TMP DP  RH WIND       PRES   REMARKS
WINCHESTER*    SUNNY     79  68  69 SW6       30.00S
STAUNTON*      MOSUNNY   79  65  62 S8        30.06S

$$

WVZ021-048>050-054>055-021400-
EASTERN WEST VIRGINIA PANHANDLE

CITY           SKY/WX    TMP DP  RH WIND       PRES   REMARKS
MARTINSBURG    SUNNY     80  66  62 SW5       29.99F
PETERSBURG*    NOT AVBL

$$

VAZ036>039-050-021400-
CENTRAL FOOTHILLS

CITY           SKY/WX    TMP DP  RH WIND       PRES   REMARKS
CHARLOTTESVILL SUNNY     81  70  69 S7        30.01S
ORANGE*        SUNNY     79  70  73 S5        30.02S

$$

VAZ055>057-021400-
NORTH AND CENTRAL PIEDMONT

CITY           SKY/WX    TMP DP  RH WIND       PRES   REMARKS
FREDERICKSBRG* SUNNY     80  71  72 SW3       29.99S
STAFFORD*      SUNNY     79  77  93 CALM      30.03S

$$

NCZ024-NYZ072-PAZ021-071-VAZ022-071-021400-
OTHER REGIONAL OBSERVATIONS

CITY           SKY/WX    TMP DP  RH WIND       PRES   REMARKS
NEW YORK CITY  SUNNY     81  72  74 CALM      29.95S
PHILADELPHIA   MOSUNNY   80  72  76 W9        29.96S
PITTSBURGH     CLOUDY    73  70  90 SW6       30.00R
ROANOKE        MOSUNNY   78  66  66 W9        30.10S
RICHMOND       MOSUNNY   82  69  64 SW7       30.02S
RALEIGH        MOSUNNY   79  70  74 SW7       30.08S

$$

ANZ530>537-021400-
MARINE OBSERVATIONS

STATION/POSITION TIME  TEMP    WIND        PRES
                       AIR SEA DIR/SP/G
                 (UTC) (F)     (DEG/KT/KT) (MB)
THOMAS PT LIGHT  1300   80 79  260/  6/  7 1015.9S
BALT KEY BRIDGE  1300          230/  8/ 10 1014.5F
COVE POINT       1300   81     270/ 10/ 14 1015.0S
LEWISETTA        1300   80 81  260/  8/ 10 1015.3S
SOLOMONS ISLAND  1300      80                N/A
PINEY POINT      1300          290/  4/  5   N/A

$$



USA.gov is the U.S. government's official web portal to all federal, state and local government web resources and services.